| time (UTC) | temp C | wind direction | speed KPH | gust KPH | rain 1hr cm | rain 24hr cm | rain mn cm | humidity % | barometer mb |
| 20260509012034 | 3 | 0 | 0.0 | 0.0 | 0.00 | 0.00 | 0.00 | 85 | 1024.6 |
| 20260509011546 | 3 | 0 | 0.0 | 0.0 | 0.00 | 0.00 | 0.00 | 84 | 1024.6 |
| 20260509011036 | 4 | 0 | 0.0 | 0.0 | 0.00 | 0.00 | 0.00 | 84 | 1024.6 |
| 20260509010533 | 4 | 0 | 0.0 | 0.0 | 0.00 | 0.00 | 0.00 | 82 | 1024.7 |
| 20260509010044 | 4 | 0 | 0.0 | 0.0 | 0.00 | 0.00 | 0.00 | 82 | 1024.6 |
| 20260509005536 | 5 | 0 | 0.0 | 0.0 | 0.00 | 0.00 | 0.00 | 81 | 1024.7 |
| 20260509005033 | 5 | 0 | 0.0 | 0.0 | 0.00 | 0.00 | 0.00 | 81 | 1024.6 |
| 20260509004556 | 5 | 0 | 0.0 | 0.0 | 0.00 | 0.00 | 0.00 | 81 | 1024.7 |
| 20260509004034 | 5 | 0 | 0.0 | 0.0 | 0.00 | 0.00 | 0.00 | 81 | 1024.6 |
| 20260509003534 | 5 | 0 | 0.0 | 0.0 | 0.00 | 0.00 | 0.00 | 80 | 1024.8 |
| 20260509003041 | 5 | 0 | 0.0 | 0.0 | 0.00 | 0.00 | 0.00 | 80 | 1024.7 |
| 20260509002536 | 5 | 0 | 0.0 | 0.0 | 0.00 | 0.00 | 0.00 | 80 | 1024.7 |
| 20260509002034 | 5 | 0 | 0.0 | 0.0 | 0.00 | 0.00 | 0.00 | 79 | 1024.7 |
| 20260509001551 | 5 | 0 | 0.0 | 0.0 | 0.00 | 0.00 | 0.00 | 79 | 1024.8 |
| 20260509001033 | 5 | 0 | 0.0 | 0.0 | 0.00 | 0.00 | 0.00 | 79 | 1024.7 |
| 20260509000535 | 5 | 0 | 0.0 | 0.0 | 0.00 | 0.00 | 0.00 | 79 | 1024.7 |
| 20260509000047 | 5 | 0 | 0.0 | 0.0 | 0.00 | 0.00 | 0.00 | 79 | 1024.7 |
| 20260508235534 | 5 | 0 | 0.0 | 0.0 | 0.00 | 0.00 | 0.00 | 79 | 1024.7 |
| 20260508235037 | 5 | 0 | 0.0 | 0.0 | 0.00 | 0.00 | 0.00 | 79 | 1024.7 |
| 20260508234544 | 5 | 0 | 0.0 | 0.0 | 0.00 | 0.00 | 0.00 | 79 | 1024.7 |
| 20260508234033 | 5 | 0 | 0.0 | 0.0 | 0.00 | 0.00 | 0.00 | 78 | 1024.7 |
| 20260508233533 | 5 | 0 | 0.0 | 0.0 | 0.00 | 0.00 | 0.00 | 79 | 1024.7 |
| 20260508233044 | 5 | 0 | 0.0 | 0.0 | 0.00 | 0.00 | 0.00 | 78 | 1024.7 |
| 20260508232534 | 5 | 0 | 0.0 | 1.6 | 0.00 | 0.00 | 0.00 | 79 | 1024.7 |
| 20260508232034 | 5 | 0 | 0.0 | 1.6 | 0.00 | 0.00 | 0.00 | 79 | 1024.8 |
| 20260508231545 | 4 | 0 | 0.0 | 0.0 | 0.00 | 0.00 | 0.00 | 79 | 1024.6 |
| 20260508231034 | 4 | 0 | 0.0 | 0.0 | 0.00 | 0.00 | 0.00 | 78 | 1024.7 |
| 20260508230533 | 5 | 0 | 0.0 | 0.0 | 0.00 | 0.00 | 0.00 | 77 | 1024.7 |
| 20260508230045 | 5 | 0 | 0.0 | 0.0 | 0.00 | 0.00 | 0.00 | 76 | 1024.6 |
| 20260508225534 | 5 | 0 | 0.0 | 0.0 | 0.00 | 0.00 | 0.00 | 76 | 1024.7 |
| 20260508225034 | 5 | 0 | 0.0 | 0.0 | 0.00 | 0.00 | 0.00 | 75 | 1024.7 |
| 20260508224550 | 5 | 0 | 0.0 | 0.0 | 0.00 | 0.00 | 0.00 | 76 | 1024.6 |
| 20260508224034 | 5 | 0 | 0.0 | 0.0 | 0.00 | 0.00 | 0.00 | 76 | 1024.6 |
| 20260508223534 | 5 | 0 | 0.0 | 0.0 | 0.00 | 0.00 | 0.00 | 76 | 1024.6 |
| 20260508223050 | 5 | 0 | 0.0 | 0.0 | 0.00 | 0.00 | 0.00 | 75 | 1024.6 |
| 20260508222534 | 5 | 0 | 0.0 | 0.0 | 0.00 | 0.00 | 0.00 | 75 | 1024.7 |
| 20260508222033 | 5 | 0 | 0.0 | 1.6 | 0.00 | 0.00 | 0.00 | 74 | 1024.5 |
| 20260508221544 | 5 | 0 | 0.0 | 3.2 | 0.00 | 0.00 | 0.00 | 75 | 1024.6 |
| 20260508221034 | 5 | 118 | 1.6 | 3.2 | 0.00 | 0.00 | 0.00 | 75 | 1024.6 |
| 20260508220534 | 5 | 101 | 1.6 | 3.2 | 0.00 | 0.00 | 0.00 | 75 | 1024.6 |
| 20260508220040 | 6 | 152 | 0.0 | 3.2 | 0.00 | 0.00 | 0.00 | 71 | 1024.6 |
| 20260508215534 | 7 | 106 | 0.0 | 1.6 | 0.00 | 0.00 | 0.00 | 66 | 1024.6 |
| 20260508215034 | 7 | 86 | 1.6 | 4.8 | 0.00 | 0.00 | 0.00 | 63 | 1024.6 |
| 20260508214555 | 7 | 0 | 0.0 | 4.8 | 0.00 | 0.00 | 0.00 | 63 | 1024.5 |
| 20260508214036 | 7 | 0 | 0.0 | 3.2 | 0.00 | 0.00 | 0.00 | 63 | 1024.5 |
| 20260508213533 | 7 | 0 | 0.0 | 3.2 | 0.00 | 0.00 | 0.00 | 62 | 1024.5 |
| 20260508213045 | 7 | 91 | 0.0 | 3.2 | 0.00 | 0.00 | 0.00 | 63 | 1024.5 |
| 20260508212534 | 7 | 89 | 0.0 | 1.6 | 0.00 | 0.00 | 0.00 | 62 | 1024.6 |
| 20260508212035 | 8 | 0 | 0.0 | 1.6 | 0.00 | 0.00 | 0.00 | 61 | 1024.5 |
| 20260508211541 | 8 | 322 | 0.0 | 1.6 | 0.00 | 0.00 | 0.00 | 62 | 1024.4 |
| 20260508211034 | 8 | 0 | 0.0 | 0.0 | 0.00 | 0.00 | 0.00 | 61 | 1024.5 |
| 20260508210534 | 8 | 0 | 0.0 | 3.2 | 0.00 | 0.00 | 0.00 | 61 | 1024.6 |
| 20260508210054 | 8 | 0 | 0.0 | 3.2 | 0.00 | 0.00 | 0.00 | 60 | 1024.5 |
| 20260508205533 | 8 | 0 | 0.0 | 1.6 | 0.00 | 0.00 | 0.00 | 60 | 1024.5 |
| 20260508205034 | 8 | 122 | 0.0 | 1.6 | 0.00 | 0.00 | 0.00 | 61 | 1024.4 |
| 20260508204544 | 8 | 0 | 0.0 | 1.6 | 0.00 | 0.00 | 0.00 | 61 | 1024.5 |
| 20260508204033 | 8 | 0 | 0.0 | 0.0 | 0.00 | 0.00 | 0.00 | 60 | 1024.5 |
| 20260508203533 | 8 | 0 | 0.0 | 0.0 | 0.00 | 0.00 | 0.00 | 60 | 1024.5 |
| 20260508203045 | 8 | 0 | 0.0 | 0.0 | 0.00 | 0.00 | 0.00 | 60 | 1024.4 |
| 20260508202535 | 8 | 0 | 0.0 | 0.0 | 0.00 | 0.00 | 0.00 | 60 | 1024.5 |
| 20260508202034 | 8 | 0 | 0.0 | 0.0 | 0.00 | 0.00 | 0.00 | 60 | 1024.4 |
| 20260508201541 | 8 | 0 | 0.0 | 1.6 | 0.00 | 0.00 | 0.00 | 61 | 1024.3 |
| 20260508201033 | 8 | 0 | 0.0 | 1.6 | 0.00 | 0.00 | 0.00 | 59 | 1024.4 |
| 20260508200534 | 9 | 0 | 0.0 | 1.6 | 0.00 | 0.00 | 0.00 | 59 | 1024.3 |
| 20260508200043 | 9 | 0 | 0.0 | 1.6 | 0.00 | 0.00 | 0.00 | 59 | 1024.4 |
| 20260508195533 | 9 | 0 | 0.0 | 1.6 | 0.00 | 0.00 | 0.00 | 59 | 1024.2 |
| 20260508195033 | 10 | 0 | 0.0 | 1.6 | 0.00 | 0.00 | 0.00 | 57 | 1024.2 |
| 20260508194546 | 10 | 108 | 0.0 | 1.6 | 0.00 | 0.00 | 0.00 | 57 | 1024.3 |
| 20260508194035 | 10 | 0 | 0.0 | 6.4 | 0.00 | 0.00 | 0.00 | 56 | 1024.1 |
| 20260508193533 | 10 | 126 | 1.6 | 6.4 | 0.00 | 0.00 | 0.00 | 55 | 1024.1 |
| 20260508193058 | 10 | 115 | 3.2 | 6.4 | 0.00 | 0.00 | 0.00 | 56 | 1024.1 |
| 20260508192533 | 11 | 114 | 1.6 | 4.8 | 0.00 | 0.00 | 0.00 | 54 | 1024.2 |
| 20260508192038 | 11 | 135 | 1.6 | 3.2 | 0.00 | 0.00 | 0.00 | 54 | 1024.1 |
| 20260508191550 | 11 | 156 | 0.0 | 3.2 | 0.00 | 0.00 | 0.00 | 52 | 1024.1 |
| 20260508191034 | 11 | 205 | 0.0 | 6.4 | 0.00 | 0.00 | 0.00 | 52 | 1024.1 |
| 20260508190533 | 11 | 218 | 3.2 | 8.0 | 0.00 | 0.00 | 0.00 | 52 | 1024.0 |
| 20260508190055 | 11 | 240 | 3.2 | 11.3 | 0.00 | 0.00 | 0.00 | 52 | 1023.8 |
| 20260508185539 | 11 | 230 | 6.4 | 11.3 | 0.00 | 0.00 | 0.00 | 51 | 1023.7 |
| 20260508185034 | 11 | 238 | 6.4 | 16.1 | 0.00 | 0.00 | 0.00 | 49 | 1023.9 |
| 20260508184539 | 12 | 224 | 9.7 | 16.1 | 0.00 | 0.00 | 0.00 | 48 | 1023.9 |
| 20260508184034 | 12 | 230 | 6.4 | 12.9 | 0.00 | 0.00 | 0.00 | 48 | 1023.8 |
| 20260508183533 | 12 | 214 | 6.4 | 11.3 | 0.00 | 0.00 | 0.00 | 49 | 1023.8 |
| 20260508183047 | 12 | 231 | 6.4 | 12.9 | 0.00 | 0.00 | 0.00 | 48 | 1023.8 |
| 20260508182534 | 12 | 232 | 8.0 | 19.3 | 0.00 | 0.00 | 0.00 | 47 | 1023.8 |
| 20260508182034 | 12 | 221 | 9.7 | 19.3 | 0.00 | 0.00 | 0.00 | 47 | 1023.9 |
| 20260508181544 | 12 | 253 | 9.7 | 19.3 | 0.00 | 0.00 | 0.00 | 46 | 1023.8 |
| 20260508181037 | 13 | 153 | 6.4 | 11.3 | 0.00 | 0.00 | 0.00 | 47 | 1023.8 |
| 20260508180533 | 13 | 231 | 8.0 | 17.7 | 0.00 | 0.00 | 0.00 | 46 | 1023.7 |
| 20260508180057 | 13 | 203 | 11.3 | 17.7 | 0.00 | 0.00 | 0.00 | 45 | 1023.6 |
| 20260508175533 | 13 | 208 | 8.0 | 19.3 | 0.00 | 0.00 | 0.00 | 45 | 1023.7 |
| 20260508175033 | 13 | 216 | 11.3 | 19.3 | 0.00 | 0.00 | 0.00 | 45 | 1023.7 |
| 20260508174559 | 13 | 226 | 12.9 | 24.1 | 0.00 | 0.00 | 0.00 | 46 | 1023.6 |
| 20260508174033 | 13 | 192 | 17.7 | 24.1 | 0.00 | 0.00 | 0.00 | 45 | 1023.6 |
| 20260508173533 | 13 | 191 | 11.3 | 20.9 | 0.00 | 0.00 | 0.00 | 45 | 1023.5 |
| 20260508173038 | 13 | 229 | 12.9 | 20.9 | 0.00 | 0.00 | 0.00 | 47 | 1023.6 |
| 20260508172534 | 13 | 207 | 11.3 | 20.9 | 0.00 | 0.00 | 0.00 | 46 | 1023.5 |
| 20260508172034 | 13 | 221 | 9.7 | 22.5 | 0.00 | 0.00 | 0.00 | 45 | 1023.4 |
| 20260508171545 | 13 | 221 | 16.1 | 22.5 | 0.00 | 0.00 | 0.00 | 45 | 1023.4 |
| 20260508171034 | 14 | 221 | 17.7 | 22.5 | 0.00 | 0.00 | 0.00 | 45 | 1023.4 |
| 20260508170534 | 14 | 223 | 12.9 | 22.5 | 0.00 | 0.00 | 0.00 | 45 | 1023.5 |
| 20260508170047 | 14 | 224 | 14.5 | 22.5 | 0.00 | 0.00 | 0.00 | 43 | 1023.3 |
| 20260508165533 | 14 | 244 | 17.7 | 25.7 | 0.00 | 0.00 | 0.00 | 44 | 1023.4 |
| 20260508165033 | 14 | 181 | 16.1 | 27.4 | 0.00 | 0.00 | 0.00 | 44 | 1023.4 |
| 20260508164550 | 14 | 212 | 16.1 | 27.4 | 0.00 | 0.00 | 0.00 | 44 | 1023.5 |
| 20260508164033 | 13 | 222 | 9.7 | 24.1 | 0.00 | 0.00 | 0.00 | 45 | 1023.4 |
| 20260508163537 | 14 | 91 | 8.0 | 17.7 | 0.00 | 0.00 | 0.00 | 45 | 1023.4 |
| 20260508163044 | 14 | 211 | 8.0 | 20.9 | 0.00 | 0.00 | 0.00 | 44 | 1023.3 |
| 20260508162533 | 15 | 241 | 16.1 | 25.7 | 0.00 | 0.00 | 0.00 | 43 | 1023.4 |
| 20260508162033 | 14 | 202 | 16.1 | 25.7 | 0.00 | 0.00 | 0.00 | 41 | 1023.2 |
| 20260508161540 | 15 | 224 | 12.9 | 27.4 | 0.00 | 0.00 | 0.00 | 43 | 1023.4 |
| 20260508161033 | 14 | 229 | 17.7 | 27.4 | 0.00 | 0.00 | 0.00 | 42 | 1023.4 |
| 20260508160533 | 14 | 214 | 11.3 | 20.9 | 0.00 | 0.00 | 0.00 | 44 | 1023.5 |
| 20260508160040 | 14 | 231 | 12.9 | 20.9 | 0.00 | 0.00 | 0.00 | 44 | 1023.5 |
| 20260508155534 | 14 | 61 | 9.7 | 20.9 | 0.00 | 0.00 | 0.00 | 43 | 1023.4 |
| 20260508155034 | 15 | 224 | 11.3 | 20.9 | 0.00 | 0.00 | 0.00 | 45 | 1023.4 |
| 20260508154538 | 14 | 215 | 14.5 | 20.9 | 0.00 | 0.00 | 0.00 | 44 | 1023.4 |
| 20260508154033 | 14 | 229 | 12.9 | 20.9 | 0.00 | 0.00 | 0.00 | 44 | 1023.5 |
| 20260508153534 | 14 | 205 | 11.3 | 19.3 | 0.00 | 0.00 | 0.00 | 45 | 1023.4 |
| 20260508153054 | 14 | 185 | 9.7 | 19.3 | 0.00 | 0.00 | 0.00 | 44 | 1023.4 |
| 20260508152534 | 14 | 207 | 11.3 | 27.4 | 0.00 | 0.00 | 0.00 | 44 | 1023.5 |
| 20260508152033 | 15 | 113 | 16.1 | 27.4 | 0.00 | 0.00 | 0.00 | 43 | 1023.5 |
| 20260508151545 | 15 | 226 | 17.7 | 25.7 | 0.00 | 0.00 | 0.00 | 43 | 1023.5 |
| 20260508151034 | 15 | 218 | 16.1 | 25.7 | 0.00 | 0.00 | 0.00 | 42 | 1023.6 |
| 20260508150533 | 15 | 244 | 17.7 | 24.1 | 0.00 | 0.00 | 0.00 | 42 | 1023.5 |
| 20260508150045 | 15 | 238 | 14.5 | 27.4 | 0.00 | 0.00 | 0.00 | 43 | 1023.5 |
| 20260508145533 | 15 | 204 | 12.9 | 30.6 | 0.00 | 0.00 | 0.00 | 43 | 1023.5 |
| 20260508145033 | 15 | 236 | 19.3 | 33.8 | 0.00 | 0.00 | 0.00 | 42 | 1023.5 |
| 20260508144550 | 15 | 227 | 22.5 | 33.8 | 0.00 | 0.00 | 0.00 | 41 | 1023.6 |
| 20260508144033 | 15 | 207 | 14.5 | 32.2 | 0.00 | 0.00 | 0.00 | 43 | 1023.6 |
| 20260508143534 | 15 | 169 | 19.3 | 32.2 | 0.00 | 0.00 | 0.00 | 41 | 1023.6 |
| 20260508143043 | 15 | 229 | 16.1 | 29.0 | 0.00 | 0.00 | 0.00 | 41 | 1023.5 |
| 20260508142534 | 15 | 211 | 17.7 | 25.7 | 0.00 | 0.00 | 0.00 | 41 | 1023.7 |
| 20260508142033 | 15 | 225 | 16.1 | 30.6 | 0.00 | 0.00 | 0.00 | 42 | 1023.6 |
| 20260508141600 | 15 | 176 | 19.3 | 32.2 | 0.00 | 0.00 | 0.00 | 39 | 1023.6 |
| 20260508141034 | 15 | 176 | 16.1 | 32.2 | 0.00 | 0.00 | 0.00 | 40 | 1023.7 |
| 20260508140533 | 15 | 225 | 24.1 | 32.2 | 0.00 | 0.00 | 0.00 | 40 | 1023.7 |
| 20260508140039 | 15 | 220 | 19.3 | 27.4 | 0.00 | 0.00 | 0.00 | 41 | 1023.6 |
| 20260508135534 | 15 | 231 | 19.3 | 29.0 | 0.00 | 0.00 | 0.00 | 41 | 1023.7 |
| 20260508135034 | 15 | 214 | 19.3 | 32.2 | 0.00 | 0.00 | 0.00 | 43 | 1023.7 |
| 20260508134545 | 15 | 219 | 19.3 | 32.2 | 0.00 | 0.00 | 0.00 | 41 | 1023.8 |
| 20260508134034 | 15 | 241 | 19.3 | 30.6 | 0.00 | 0.00 | 0.00 | 43 | 1023.8 |
| 20260508133534 | 15 | 231 | 20.9 | 30.6 | 0.00 | 0.00 | 0.00 | 40 | 1023.9 |
| 20260508133045 | 15 | 250 | 22.5 | 30.6 | 0.00 | 0.00 | 0.00 | 41 | 1023.9 |
| 20260508132535 | 15 | 166 | 16.1 | 30.6 | 0.00 | 0.00 | 0.00 | 41 | 1023.8 |
| 20260508132034 | 15 | 197 | 17.7 | 33.8 | 0.00 | 0.00 | 0.00 | 42 | 1023.8 |
| 20260508131556 | 15 | 221 | 16.1 | 33.8 | 0.00 | 0.00 | 0.00 | 41 | 1024.0 |
| 20260508131034 | 15 | 197 | 14.5 | 29.0 | 0.00 | 0.00 | 0.00 | 42 | 1024.0 |
| 20260508130535 | 15 | 212 | 14.5 | 29.0 | 0.00 | 0.00 | 0.00 | 41 | 1024.0 |
| 20260508130042 | 15 | 229 | 16.1 | 30.6 | 0.00 | 0.00 | 0.00 | 42 | 1023.9 |
| 20260508125533 | 15 | 143 | 14.5 | 30.6 | 0.00 | 0.00 | 0.00 | 42 | 1023.9 |
| 20260508125034 | 15 | 207 | 17.7 | 30.6 | 0.00 | 0.00 | 0.00 | 40 | 1024.0 |
| 20260508124539 | 15 | 229 | 20.9 | 33.8 | 0.00 | 0.00 | 0.00 | 41 | 1023.9 |
| 20260508124033 | 15 | 238 | 19.3 | 33.8 | 0.00 | 0.00 | 0.00 | 41 | 1023.9 |
| 20260508123534 | 15 | 212 | 20.9 | 33.8 | 0.00 | 0.00 | 0.00 | 42 | 1024.0 |
| 20260508123056 | 15 | 214 | 19.3 | 30.6 | 0.00 | 0.00 | 0.00 | 42 | 1023.8 |
| 20260508122534 | 15 | 220 | 16.1 | 27.4 | 0.00 | 0.00 | 0.00 | 40 | 1024.1 |
| 20260508122033 | 15 | 217 | 11.3 | 24.1 | 0.00 | 0.00 | 0.00 | 41 | 1023.8 |
| 20260508121548 | 15 | 222 | 9.7 | 27.4 | 0.00 | 0.00 | 0.00 | 42 | 1023.8 |
| 20260508121034 | 15 | 209 | 16.1 | 27.4 | 0.00 | 0.00 | 0.00 | 42 | 1023.9 |
| 20260508120533 | 15 | 226 | 14.5 | 27.4 | 0.00 | 0.00 | 0.00 | 42 | 1023.7 |
| 20260508120104 | 15 | 202 | 12.9 | 27.4 | 0.00 | 0.00 | 0.00 | 42 | 1023.7 |
| 20260508115534 | 15 | 219 | 16.1 | 27.4 | 0.00 | 0.00 | 0.00 | 43 | 1023.8 |
| 20260508115033 | 15 | 246 | 16.1 | 27.4 | 0.00 | 0.00 | 0.00 | 42 | 1023.8 |
| 20260508114555 | 15 | 224 | 14.5 | 25.7 | 0.00 | 0.00 | 0.00 | 42 | 1023.8 |
| 20260508114037 | 15 | 228 | 16.1 | 25.7 | 0.00 | 0.00 | 0.00 | 43 | 1023.7 |
| 20260508113558 | 15 | 202 | 9.7 | 24.1 | 0.00 | 0.00 | 0.00 | 45 | 1023.7 |
| 20260508113100 | 15 | 184 | 11.3 | 24.1 | 0.00 | 0.00 | 0.00 | 42 | 1023.7 |
| 20260508112534 | 15 | 193 | 14.5 | 24.1 | 0.00 | 0.00 | 0.00 | 42 | 1023.7 |
| 20260508112033 | 15 | 233 | 12.9 | 24.1 | 0.00 | 0.00 | 0.00 | 44 | 1023.8 |
| 20260508111541 | 15 | 231 | 12.9 | 24.1 | 0.00 | 0.00 | 0.00 | 44 | 1023.8 |
| 20260508111033 | 15 | 80 | 9.7 | 20.9 | 0.00 | 0.00 | 0.00 | 47 | 1023.6 |
| 20260508110534 | 14 | 115 | 9.7 | 29.0 | 0.00 | 0.00 | 0.00 | 44 | 1023.4 |
| 20260508110038 | 14 | 220 | 12.9 | 29.0 | 0.00 | 0.00 | 0.00 | 47 | 1023.7 |
| 20260508105534 | 14 | 240 | 14.5 | 27.4 | 0.00 | 0.00 | 0.00 | 48 | 1023.7 |
| 20260508105034 | 14 | 207 | 14.5 | 22.5 | 0.00 | 0.00 | 0.00 | 46 | 1023.7 |
| 20260508104547 | 14 | 219 | 14.5 | 22.5 | 0.00 | 0.00 | 0.00 | 48 | 1023.5 |
| 20260508104033 | 13 | 248 | 14.5 | 22.5 | 0.00 | 0.00 | 0.00 | 48 | 1023.6 |
| 20260508103533 | 14 | 221 | 14.5 | 20.9 | 0.00 | 0.00 | 0.00 | 49 | 1023.4 |
| 20260508103053 | 13 | 223 | 12.9 | 20.9 | 0.00 | 0.00 | 0.00 | 49 | 1023.6 |
| 20260508102533 | 13 | 210 | 12.9 | 22.5 | 0.00 | 0.00 | 0.00 | 51 | 1023.7 |
| 20260508102033 | 13 | 188 | 9.7 | 22.5 | 0.00 | 0.00 | 0.00 | 51 | 1023.5 |
| 20260508101551 | 13 | 100 | 11.3 | 19.3 | 0.00 | 0.00 | 0.00 | 52 | 1023.5 |
| 20260508101034 | 13 | 186 | 11.3 | 19.3 | 0.00 | 0.00 | 0.00 | 50 | 1023.6 |
| 20260508100533 | 14 | 214 | 11.3 | 17.7 | 0.00 | 0.00 | 0.00 | 50 | 1023.5 |
| 20260508100040 | 14 | 103 | 11.3 | 25.7 | 0.00 | 0.00 | 0.00 | 52 | 1023.5 |
| 20260508095533 | 14 | 181 | 9.7 | 25.7 | 0.00 | 0.00 | 0.00 | 50 | 1023.5 |
| 20260508095033 | 13 | 214 | 17.7 | 24.1 | 0.00 | 0.00 | 0.00 | 49 | 1023.6 |
| 20260508094540 | 13 | 224 | 9.7 | 20.9 | 0.00 | 0.00 | 0.00 | 52 | 1023.6 |
| 20260508094033 | 13 | 113 | 8.0 | 17.7 | 0.00 | 0.00 | 0.00 | 53 | 1023.6 |
| 20260508093536 | 13 | 126 | 11.3 | 22.5 | 0.00 | 0.00 | 0.00 | 53 | 1023.7 |
| 20260508093046 | 13 | 179 | 9.7 | 22.5 | 0.00 | 0.00 | 0.00 | 51 | 1023.7 |
| 20260508092535 | 13 | 124 | 9.7 | 20.9 | 0.00 | 0.00 | 0.00 | 53 | 1023.5 |
| 20260508092033 | 13 | 160 | 8.0 | 20.9 | 0.00 | 0.00 | 0.00 | 54 | 1023.7 |
| 20260508091545 | 12 | 226 | 9.7 | 20.9 | 0.00 | 0.00 | 0.00 | 52 | 1023.7 |
| 20260508091033 | 12 | 221 | 9.7 | 19.3 | 0.00 | 0.00 | 0.00 | 51 | 1023.7 |
| 20260508090533 | 12 | 134 | 8.0 | 19.3 | 0.00 | 0.00 | 0.00 | 51 | 1023.7 |
| 20260508090050 | 12 | 181 | 8.0 | 19.3 | 0.00 | 0.00 | 0.00 | 50 | 1023.8 |
| 20260508085534 | 12 | 115 | 6.4 | 20.9 | 0.00 | 0.00 | 0.00 | 52 | 1023.7 |
| 20260508085033 | 12 | 162 | 8.0 | 20.9 | 0.00 | 0.00 | 0.00 | 51 | 1023.8 |
| 20260508084539 | 12 | 147 | 11.3 | 20.9 | 0.00 | 0.00 | 0.00 | 52 | 1023.7 |
| 20260508084034 | 12 | 95 | 4.8 | 19.3 | 0.00 | 0.00 | 0.00 | 55 | 1023.6 |
| 20260508083532 | 11 | 173 | 6.4 | 19.3 | 0.00 | 0.00 | 0.00 | 57 | 1023.8 |
| 20260508083149 | 11 | 107 | 4.8 | 14.5 | 0.00 | 0.00 | 0.00 | 56 | 1023.7 |
| 20260508082536 | 11 | 173 | 4.8 | 16.1 | 0.00 | 0.00 | 0.00 | 58 | 1023.9 |
| 20260508082034 | 11 | 90 | 6.4 | 16.1 | 0.00 | 0.00 | 0.00 | 59 | 1023.8 |
| 20260508081548 | 11 | 109 | 4.8 | 16.1 | 0.00 | 0.00 | 0.00 | 58 | 1023.7 |
| 20260508081033 | 11 | 169 | 4.8 | 14.5 | 0.00 | 0.00 | 0.00 | 59 | 1023.8 |
| 20260508080535 | 11 | 222 | 6.4 | 14.5 | 0.00 | 0.00 | 0.00 | 59 | 1023.7 |
| 20260508080048 | 10 | 225 | 4.8 | 14.5 | 0.00 | 0.00 | 0.00 | 57 | 1023.7 |
| 20260508075534 | 10 | 202 | 4.8 | 14.5 | 0.00 | 0.00 | 0.00 | 57 | 1023.7 |
| 20260508075033 | 10 | 122 | 6.4 | 14.5 | 0.00 | 0.00 | 0.00 | 58 | 1023.7 |
| 20260508074547 | 10 | 154 | 4.8 | 11.3 | 0.00 | 0.00 | 0.00 | 60 | 1023.7 |
| 20260508074035 | 10 | 124 | 4.8 | 11.3 | 0.00 | 0.00 | 0.00 | 60 | 1023.6 |
| 20260508073534 | 10 | 104 | 3.2 | 9.7 | 0.00 | 0.00 | 0.00 | 64 | 1023.6 |
| 20260508073045 | 9 | 89 | 3.2 | 11.3 | 0.00 | 0.00 | 0.00 | 65 | 1023.6 |
| 20260508072534 | 8 | 89 | 4.8 | 11.3 | 0.00 | 0.00 | 0.00 | 67 | 1023.7 |
| 20260508072034 | 8 | 174 | 3.2 | 9.7 | 0.00 | 0.00 | 0.00 | 68 | 1023.7 |
| 20260508071541 | 8 | 90 | 1.6 | 6.4 | 0.00 | 0.00 | 0.00 | 68 | 1023.6 |
| 20260508071033 | 7 | 148 | 0.0 | 4.8 | 0.00 | 0.00 | 0.00 | 68 | 1023.6 |
| 20260508070534 | 7 | 0 | 3.2 | 4.8 | 0.00 | 0.00 | 0.00 | 67 | 1023.6 |
| 20260508070040 | 7 | 222 | 3.2 | 4.8 | 0.00 | 0.00 | 0.00 | 68 | 1023.5 |
| 20260508065533 | 7 | 0 | 1.6 | 4.8 | 0.00 | 0.00 | 0.00 | 68 | 1023.5 |
| 20260508065035 | 6 | 0 | 0.0 | 1.6 | 0.00 | 0.00 | 0.00 | 65 | 1023.6 |
| 20260508064542 | 6 | 0 | 0.0 | 1.6 | 0.00 | 0.00 | 0.00 | 62 | 1023.6 |
| 20260508064033 | 5 | 0 | 0.0 | 1.6 | 0.00 | 0.00 | 0.00 | 60 | 1023.4 |
| 20260508063533 | 5 | 219 | 1.6 | 1.6 | 0.00 | 0.00 | 0.00 | 58 | 1023.4 |
| 20260508063056 | 5 | 209 | 0.0 | 1.6 | 0.00 | 0.00 | 0.00 | 60 | 1023.5 |
| 20260508062533 | 5 | 0 | 0.0 | 3.2 | 0.00 | 0.00 | 0.00 | 63 | 1023.5 |
| 20260508062033 | 5 | 280 | 0.0 | 3.2 | 0.00 | 0.00 | 0.00 | 63 | 1023.3 |
| 20260508061548 | 4 | 294 | 1.6 | 3.2 | 0.00 | 0.00 | 0.00 | 63 | 1023.3 |
| 20260508061034 | 3 | 287 | 0.0 | 1.6 | 0.00 | 0.00 | 0.00 | 68 | 1023.1 |
| 20260508060533 | 3 | 0 | 0.0 | 0.0 | 0.00 | 0.00 | 0.00 | 72 | 1023.3 |
| 20260508060046 | 3 | 0 | 0.0 | 0.0 | 0.00 | 0.00 | 0.00 | 76 | 1023.1 |
| 20260508055533 | 2 | 0 | 0.0 | 0.0 | 0.00 | 0.00 | 0.00 | 77 | 1023.1 |
| 20260508055033 | 2 | 0 | 0.0 | 0.0 | 0.00 | 0.00 | 0.00 | 78 | 1023.1 |
| 20260508054544 | 1 | 0 | 0.0 | 0.0 | 0.00 | 0.00 | 0.00 | 79 | 1023.0 |
| 20260508054033 | 1 | 0 | 0.0 | 0.0 | 0.00 | 0.00 | 0.00 | 79 | 1023.0 |
| 20260508053533 | 1 | 0 | 0.0 | 0.0 | 0.00 | 0.00 | 0.00 | 80 | 1022.9 |
| 20260508053042 | 1 | 0 | 0.0 | 0.0 | 0.00 | 0.00 | 0.00 | 80 | 1022.9 |
| 20260508052533 | 0 | 0 | 0.0 | 0.0 | 0.00 | 0.00 | 0.00 | 83 | 1023.0 |
| 20260508052032 | 0 | 0 | 0.0 | 0.0 | 0.00 | 0.00 | 0.00 | 85 | 1023.0 |
| 20260508051543 | 0 | 0 | 0.0 | 0.0 | 0.00 | 0.00 | 0.00 | 85 | 1023.0 |
| 20260508051033 | 0 | 0 | 0.0 | 0.0 | 0.00 | 0.00 | 0.00 | 86 | 1022.9 |
| 20260508050533 | 0 | 0 | 0.0 | 1.6 | 0.00 | 0.00 | 0.00 | 86 | 1022.9 |
| 20260508050048 | 0 | 0 | 0.0 | 1.6 | 0.00 | 0.00 | 0.00 | 87 | 1022.8 |
| 20260508045532 | -1 | 0 | 0.0 | 0.0 | 0.00 | 0.00 | 0.00 | 86 | 1022.8 |
| 20260508045032 | -1 | 0 | 0.0 | 0.0 | 0.00 | 0.00 | 0.00 | 86 | 1022.7 |
| 20260508044545 | -1 | 0 | 0.0 | 0.0 | 0.00 | 0.00 | 0.00 | 86 | 1022.7 |
| 20260508044032 | -1 | 0 | 0.0 | 0.0 | 0.00 | 0.00 | 0.00 | 86 | 1022.6 |
| 20260508043533 | -1 | 0 | 0.0 | 0.0 | 0.00 | 0.00 | 0.00 | 86 | 1022.4 |
| 20260508043056 | -1 | 0 | 0.0 | 0.0 | 0.00 | 0.00 | 0.00 | 85 | 1022.5 |
| 20260508042533 | -1 | 0 | 0.0 | 0.0 | 0.00 | 0.00 | 0.00 | 85 | 1022.4 |
| 20260508042035 | -1 | 0 | 0.0 | 0.0 | 0.00 | 0.00 | 0.00 | 85 | 1022.4 |
| 20260508041550 | -1 | 0 | 0.0 | 0.0 | 0.00 | 0.00 | 0.00 | 85 | 1022.4 |
| 20260508041035 | -1 | 0 | 0.0 | 0.0 | 0.00 | 0.00 | 0.00 | 84 | 1022.3 |
| 20260508040533 | -1 | 0 | 0.0 | 0.0 | 0.00 | 0.00 | 0.00 | 84 | 1022.3 |
| 20260508040042 | -1 | 0 | 0.0 | 0.0 | 0.00 | 0.00 | 0.00 | 84 | 1022.3 |
| 20260508035533 | -1 | 0 | 0.0 | 0.0 | 0.00 | 0.00 | 0.00 | 84 | 1022.2 |
| 20260508035033 | -1 | 0 | 0.0 | 0.0 | 0.00 | 0.00 | 0.00 | 85 | 1022.2 |
| 20260508034548 | -1 | 0 | 0.0 | 0.0 | 0.00 | 0.00 | 0.00 | 86 | 1022.2 |
| 20260508034032 | -1 | 0 | 0.0 | 0.0 | 0.00 | 0.00 | 0.00 | 87 | 1022.2 |
| 20260508033532 | -1 | 0 | 0.0 | 0.0 | 0.00 | 0.00 | 0.00 | 87 | 1022.1 |
| 20260508033039 | -1 | 0 | 0.0 | 0.0 | 0.00 | 0.00 | 0.00 | 87 | 1022.1 |
| 20260508032533 | -1 | 0 | 0.0 | 0.0 | 0.00 | 0.00 | 0.00 | 87 | 1022.0 |
| 20260508032035 | -1 | 0 | 0.0 | 0.0 | 0.00 | 0.00 | 0.00 | 87 | 1022.1 |
| 20260508031544 | -1 | 0 | 0.0 | 0.0 | 0.00 | 0.00 | 0.00 | 87 | 1022.1 |
| 20260508031033 | -1 | 0 | 0.0 | 0.0 | 0.00 | 0.00 | 0.00 | 87 | 1022.1 |
| 20260508030534 | -1 | 0 | 0.0 | 0.0 | 0.00 | 0.00 | 0.00 | 86 | 1022.2 |
| 20260508030045 | -1 | 0 | 0.0 | 0.0 | 0.00 | 0.00 | 0.00 | 86 | 1022.1 |
| 20260508025533 | -2 | 0 | 0.0 | 0.0 | 0.00 | 0.00 | 0.00 | 85 | 1022.0 |
| 20260508025034 | -1 | 0 | 0.0 | 0.0 | 0.00 | 0.00 | 0.00 | 85 | 1022.1 |
| 20260508024541 | -1 | 0 | 0.0 | 0.0 | 0.00 | 0.00 | 0.00 | 86 | 1022.0 |
| 20260508024033 | -2 | 0 | 0.0 | 0.0 | 0.00 | 0.00 | 0.00 | 85 | 1021.9 |
| 20260508023533 | -2 | 0 | 0.0 | 0.0 | 0.00 | 0.00 | 0.00 | 85 | 1021.9 |
| 20260508023038 | -2 | 0 | 0.0 | 0.0 | 0.00 | 0.00 | 0.00 | 84 | 1021.9 |
| 20260508022533 | -2 | 0 | 0.0 | 0.0 | 0.00 | 0.00 | 0.00 | 85 | 1021.8 |
| 20260508022033 | -1 | 0 | 0.0 | 0.0 | 0.00 | 0.00 | 0.00 | 86 | 1021.8 |
| 20260508021551 | -1 | 0 | 0.0 | 0.0 | 0.00 | 0.00 | 0.00 | 86 | 1021.9 |
| 20260508021032 | -1 | 0 | 0.0 | 0.0 | 0.00 | 0.00 | 0.00 | 86 | 1021.8 |
| 20260508020532 | -2 | 0 | 0.0 | 0.0 | 0.00 | 0.00 | 0.00 | 86 | 1021.8 |
| 20260508020049 | -2 | 0 | 0.0 | 0.0 | 0.00 | 0.00 | 0.00 | 85 | 1021.8 |
| 20260508015532 | -1 | 0 | 0.0 | 0.0 | 0.00 | 0.00 | 0.00 | 85 | 1021.8 |
| 20260508015032 | -1 | 0 | 0.0 | 0.0 | 0.00 | 0.00 | 0.00 | 85 | 1021.8 |
| 20260508014544 | -1 | 0 | 0.0 | 0.0 | 0.00 | 0.00 | 0.00 | 84 | 1021.8 |
| 20260508014033 | -1 | 0 | 0.0 | 0.0 | 0.00 | 0.00 | 0.00 | 84 | 1021.9 |
| 20260508013533 | -1 | 0 | 0.0 | 0.0 | 0.00 | 0.00 | 0.00 | 83 | 1021.7 |
| 20260508013053 | -1 | 0 | 0.0 | 0.0 | 0.00 | 0.00 | 0.00 | 83 | 1021.7 |
| 20260508012533 | -1 | 0 | 0.0 | 0.0 | 0.00 | 0.00 | 0.00 | 83 | 1021.6 |